Location: Anne Acres
(38.7004°N, 75.0827°W)
Time: 05:12:17
(UTC+00:00)

BlueWalker 3 - Visible Passes

Search period start: 11 October 2024 00:00
Search period end: 21 October 2024 00:00
Orbit: 472 x 485 km, 53.2° (Epoch: 10 October)

Date Brightness Start Highest point End Pass type
(mag) Time Alt. Az. Time Alt. Az. Time Alt. Az.
11 Oct 4.9 08:36:05 11° NNE 08:36:05 11° NNE 08:36:16 10° NNE visible
17 Oct 4.0 10:36:51 10° NNW 10:39:39 20° NNE 10:42:27 10° ENE visible
18 Oct 4.1 10:08:19 10° NNW 10:10:59 18° NNE 10:13:38 10° ENE visible
19 Oct 4.2 09:40:07 11° NNW 09:42:16 17° NNE 09:44:47 10° ENE visible
20 Oct 4.2 09:12:48 15° N 09:13:31 16° NNE 09:15:52 10° ENE visible
